Year,Month,Day,Hour,Minute,Value (Times are PST for temperature in C)
2016,04,15,00,00,4.90
2016,04,15,00,01,4.90
2016,04,15,00,02,4.90
2016,04,15,00,03,4.90
2016,04,15,00,04,4.90
2016,04,15,00,05,4.90
2016,04,15,00,06,4.90
2016,04,15,00,07,4.90
2016,04,15,00,08,4.90
2016,04,15,00,09,4.90
2016,04,15,00,10,4.90
2016,04,15,00,11,4.90
2016,04,15,00,12,4.90
2016,04,15,00,13,4.90
2016,04,15,00,14,4.80
2016,04,15,00,15,4.80
2016,04,15,00,16,4.80
2016,04,15,00,17,4.80
2016,04,15,00,18,4.80
2016,04,15,00,19,4.70
2016,04,15,00,20,4.70
2016,04,15,00,21,4.70
2016,04,15,00,22,4.70
2016,04,15,00,23,4.70
2016,04,15,00,24,4.70
2016,04,15,00,25,4.70
2016,04,15,00,26,4.70
2016,04,15,00,27,4.60
2016,04,15,00,28,4.60
2016,04,15,00,29,4.60
2016,04,15,00,30,4.60
2016,04,15,00,31,4.60
2016,04,15,00,32,4.60
2016,04,15,00,33,4.60
2016,04,15,00,34,4.60
2016,04,15,00,35,4.60
2016,04,15,00,36,4.60
2016,04,15,00,37,4.60
2016,04,15,00,38,4.60
2016,04,15,00,39,4.60
2016,04,15,00,40,4.60
2016,04,15,00,41,4.60
2016,04,15,00,42,4.50
2016,04,15,00,43,4.50
2016,04,15,00,44,4.40
2016,04,15,00,45,4.40
2016,04,15,00,46,4.40
2016,04,15,00,47,4.40
2016,04,15,00,48,4.40
2016,04,15,00,49,4.40
2016,04,15,00,50,4.40
2016,04,15,00,51,4.40
2016,04,15,00,52,4.40
2016,04,15,00,53,4.40
2016,04,15,00,54,4.40
2016,04,15,00,55,4.40
2016,04,15,00,56,4.40
2016,04,15,00,57,4.30
2016,04,15,00,58,4.30
2016,04,15,00,59,4.30
2016,04,15,01,00,4.30
2016,04,15,01,01,4.30
2016,04,15,01,02,4.30
2016,04,15,01,03,4.30
2016,04,15,01,04,4.30
2016,04,15,01,05,4.30
2016,04,15,01,06,4.30
2016,04,15,01,07,4.30
2016,04,15,01,08,4.30
2016,04,15,01,09,4.20
2016,04,15,01,10,4.20
2016,04,15,01,11,4.20
2016,04,15,01,12,4.20
2016,04,15,01,13,4.20
2016,04,15,01,14,4.10
2016,04,15,01,15,4.10
2016,04,15,01,16,4.10
2016,04,15,01,17,4.10
2016,04,15,01,18,4.10
2016,04,15,01,19,4.10
2016,04,15,01,20,4.10
2016,04,15,01,21,4.10
2016,04,15,01,22,4.10
2016,04,15,01,23,4.10
2016,04,15,01,24,4.10
2016,04,15,01,25,4.10
2016,04,15,01,26,4.10
2016,04,15,01,27,4.10
2016,04,15,01,28,4.10
2016,04,15,01,29,4.10
2016,04,15,01,30,4.00
2016,04,15,01,31,4.00
2016,04,15,01,32,4.00
2016,04,15,01,33,4.00
2016,04,15,01,34,4.00
2016,04,15,01,35,4.00
2016,04,15,01,36,4.00
2016,04,15,01,37,4.00
2016,04,15,01,38,4.00
2016,04,15,01,39,4.00
2016,04,15,01,40,3.90
2016,04,15,01,41,3.90
2016,04,15,01,42,3.90
2016,04,15,01,43,4.00
2016,04,15,01,44,4.00
2016,04,15,01,45,4.00
2016,04,15,01,46,4.00
2016,04,15,01,47,3.90
2016,04,15,01,48,3.90
2016,04,15,01,49,3.90
2016,04,15,01,50,3.90
2016,04,15,01,51,3.90
2016,04,15,01,52,3.90
2016,04,15,01,53,3.80
2016,04,15,01,54,3.80
2016,04,15,01,55,3.80
2016,04,15,01,56,3.80
2016,04,15,01,57,3.80
2016,04,15,01,58,3.80
2016,04,15,01,59,3.80
2016,04,15,02,00,3.80
2016,04,15,02,01,3.80
2016,04,15,02,02,3.80
2016,04,15,02,03,3.80
2016,04,15,02,04,3.90
2016,04,15,02,05,3.90
2016,04,15,02,06,3.90
2016,04,15,02,07,3.90
2016,04,15,02,08,3.90
2016,04,15,02,09,4.00
2016,04,15,02,10,4.00
2016,04,15,02,11,4.00
2016,04,15,02,12,4.10
2016,04,15,02,13,4.10
2016,04,15,02,14,4.10
2016,04,15,02,15,4.10
2016,04,15,02,16,4.20
2016,04,15,02,17,4.20
2016,04,15,02,18,4.20
2016,04,15,02,19,4.20
2016,04,15,02,20,4.20
2016,04,15,02,21,4.20
2016,04,15,02,22,4.30
2016,04,15,02,23,4.30
2016,04,15,02,24,4.30
2016,04,15,02,25,4.30
2016,04,15,02,26,4.40
2016,04,15,02,27,4.40
2016,04,15,02,28,4.40
2016,04,15,02,29,4.40
2016,04,15,02,30,4.40
2016,04,15,02,31,4.40
2016,04,15,02,32,4.50
2016,04,15,02,33,4.50
2016,04,15,02,34,4.50
2016,04,15,02,35,4.60
2016,04,15,02,36,4.60
2016,04,15,02,37,4.60
2016,04,15,02,38,4.60
2016,04,15,02,39,4.60
2016,04,15,02,40,4.60
2016,04,15,02,41,4.60
2016,04,15,02,42,4.60
2016,04,15,02,43,4.70
2016,04,15,02,44,4.70
2016,04,15,02,45,4.70
2016,04,15,02,46,4.70
2016,04,15,02,47,4.70
2016,04,15,02,48,4.70
2016,04,15,02,49,4.80
2016,04,15,02,50,4.80
2016,04,15,02,51,4.80
2016,04,15,02,52,4.80
2016,04,15,02,53,4.80
2016,04,15,02,54,4.90
2016,04,15,02,55,4.90
2016,04,15,02,56,4.90
2016,04,15,02,57,4.90
2016,04,15,02,58,4.90
2016,04,15,02,59,4.90
2016,04,15,03,00,5.00
2016,04,15,03,01,5.00
2016,04,15,03,02,5.00
2016,04,15,03,03,5.00
2016,04,15,03,06,5.10
2016,04,15,03,07,5.20
2016,04,15,03,08,5.20
2016,04,15,03,09,5.20
2016,04,15,03,10,5.20
2016,04,15,03,11,5.30
2016,04,15,03,12,5.30
2016,04,15,03,13,5.30
2016,04,15,03,14,5.30
2016,04,15,03,15,5.30
2016,04,15,03,16,5.30
2016,04,15,03,17,5.40
2016,04,15,03,18,5.40
2016,04,15,03,19,5.40
2016,04,15,03,20,5.40
2016,04,15,03,21,5.40
2016,04,15,03,22,5.40
2016,04,15,03,23,5.40
2016,04,15,03,24,5.40
2016,04,15,03,25,5.40
2016,04,15,03,26,5.40
2016,04,15,03,27,5.40
2016,04,15,03,28,5.40
2016,04,15,03,29,5.40
2016,04,15,03,30,5.50
2016,04,15,03,31,5.50
2016,04,15,03,32,5.50
2016,04,15,03,33,5.60
2016,04,15,03,34,5.60
2016,04,15,03,35,5.60
2016,04,15,03,36,5.60
2016,04,15,03,37,5.60
2016,04,15,03,38,5.60
2016,04,15,03,39,5.60
2016,04,15,03,40,5.60
2016,04,15,03,41,5.60
2016,04,15,03,42,5.60
2016,04,15,03,43,5.60
2016,04,15,03,44,5.70
2016,04,15,03,45,5.70
2016,04,15,03,46,5.70
2016,04,15,03,47,5.70
2016,04,15,03,48,5.70
2016,04,15,03,49,5.70
2016,04,15,03,50,5.70
2016,04,15,03,51,5.70
2016,04,15,03,52,5.70
2016,04,15,03,53,5.70
2016,04,15,03,54,5.70
2016,04,15,03,55,5.70
2016,04,15,03,56,5.80
2016,04,15,03,57,5.80
2016,04,15,03,58,5.80
2016,04,15,03,59,5.80
2016,04,15,04,00,5.80
2016,04,15,04,01,5.80
2016,04,15,04,02,5.80
2016,04,15,04,03,5.80
2016,04,15,04,04,5.80
2016,04,15,04,05,5.80
2016,04,15,04,06,5.80
2016,04,15,04,07,5.80
2016,04,15,04,08,5.80
2016,04,15,04,09,5.80
2016,04,15,04,10,5.80
2016,04,15,04,11,5.80
2016,04,15,04,12,5.80
2016,04,15,04,13,5.80
2016,04,15,04,14,5.80
2016,04,15,04,15,5.80
2016,04,15,04,16,5.70
2016,04,15,04,17,5.70
2016,04,15,04,18,5.70
2016,04,15,04,19,5.70
2016,04,15,04,20,5.70
2016,04,15,04,21,5.70
2016,04,15,04,22,5.70
2016,04,15,04,23,5.80
2016,04,15,04,24,5.80
2016,04,15,04,25,5.80
2016,04,15,04,26,5.80
2016,04,15,04,27,5.80
2016,04,15,04,28,5.80
2016,04,15,04,29,5.80
2016,04,15,04,30,5.80
2016,04,15,04,31,5.80
2016,04,15,04,32,5.80
2016,04,15,04,33,5.80
2016,04,15,04,34,5.80
2016,04,15,04,35,5.80
2016,04,15,04,36,5.80
2016,04,15,04,37,5.80
2016,04,15,04,38,5.80
2016,04,15,04,39,5.80
2016,04,15,04,40,5.90
2016,04,15,04,41,5.90
2016,04,15,04,42,5.90
2016,04,15,04,43,5.90
2016,04,15,04,44,6.00
2016,04,15,04,45,6.00
2016,04,15,04,46,6.00
2016,04,15,04,47,6.00
2016,04,15,04,48,6.00
2016,04,15,04,49,6.00
2016,04,15,04,50,6.00
2016,04,15,04,51,6.00
2016,04,15,04,52,6.00
2016,04,15,04,53,6.00
2016,04,15,04,54,6.00
2016,04,15,04,55,6.00
2016,04,15,04,56,6.00
2016,04,15,04,57,6.00
2016,04,15,04,58,6.00
2016,04,15,04,59,6.00
2016,04,15,05,00,6.10
2016,04,15,05,01,6.10
2016,04,15,05,02,6.00
2016,04,15,05,03,6.00
2016,04,15,05,04,6.10
2016,04,15,05,05,6.10
2016,04,15,05,06,6.10
2016,04,15,05,07,6.10
2016,04,15,05,08,6.10
2016,04,15,05,09,6.20
2016,04,15,05,10,6.20
2016,04,15,05,11,6.20
2016,04,15,05,12,6.20
2016,04,15,05,13,6.20
2016,04,15,05,14,6.10
2016,04,15,05,15,6.10
2016,04,15,05,16,6.10
2016,04,15,05,17,6.10
2016,04,15,05,18,6.10
2016,04,15,05,19,6.10
2016,04,15,05,20,6.10
2016,04,15,05,21,6.10
2016,04,15,05,22,6.10
2016,04,15,05,23,6.10
2016,04,15,05,24,6.10
2016,04,15,05,25,6.10
2016,04,15,05,26,6.10
2016,04,15,05,27,6.10
2016,04,15,05,28,6.10
2016,04,15,05,29,6.10
2016,04,15,05,30,6.10
2016,04,15,05,31,6.10
2016,04,15,05,32,6.10
2016,04,15,05,33,6.20
2016,04,15,05,34,6.20
2016,04,15,05,35,6.20
2016,04,15,05,36,6.20
2016,04,15,05,37,6.20
2016,04,15,05,38,6.20
2016,04,15,05,39,6.20
2016,04,15,05,40,6.20
2016,04,15,05,41,6.20
2016,04,15,05,42,6.20
2016,04,15,05,43,6.20
2016,04,15,05,44,6.20
2016,04,15,05,45,6.20
2016,04,15,05,46,6.30
2016,04,15,05,47,6.30
2016,04,15,05,48,6.30
2016,04,15,05,49,6.30
2016,04,15,05,50,6.40
2016,04,15,05,51,6.40
2016,04,15,05,52,6.40
2016,04,15,05,53,6.50
2016,04,15,05,54,6.50
2016,04,15,05,55,6.50
2016,04,15,05,56,6.50
2016,04,15,05,57,6.60
2016,04,15,05,58,6.60
2016,04,15,05,59,6.60
2016,04,15,06,00,6.60
2016,04,15,06,01,6.60
2016,04,15,06,02,6.60
2016,04,15,06,03,6.60
2016,04,15,06,04,6.60
2016,04,15,06,05,6.60
2016,04,15,06,06,6.50
2016,04,15,06,07,6.50
2016,04,15,06,08,6.60
2016,04,15,06,09,6.60
2016,04,15,06,10,6.60
2016,04,15,06,11,6.60
2016,04,15,06,12,6.60
2016,04,15,06,13,6.60
2016,04,15,06,14,6.60
2016,04,15,06,15,6.60
2016,04,15,06,16,6.60
2016,04,15,06,17,6.60
2016,04,15,06,18,6.60
2016,04,15,06,19,6.60
2016,04,15,06,20,6.60
2016,04,15,06,21,6.60
2016,04,15,06,22,6.60
2016,04,15,06,23,6.60
2016,04,15,06,24,6.60
2016,04,15,06,25,6.60
2016,04,15,06,26,6.70
2016,04,15,06,27,6.70
2016,04,15,06,28,6.70
2016,04,15,06,29,6.70
2016,04,15,06,30,6.70
2016,04,15,06,31,6.70
2016,04,15,06,32,6.70
2016,04,15,06,33,6.80
2016,04,15,06,34,6.80
2016,04,15,06,35,6.80
2016,04,15,06,36,6.80
2016,04,15,06,37,6.80
2016,04,15,06,38,6.80
2016,04,15,06,39,6.80
2016,04,15,06,40,6.80
2016,04,15,06,41,6.80
2016,04,15,06,42,6.80
2016,04,15,06,43,6.80
2016,04,15,06,44,6.80
2016,04,15,06,45,6.80
2016,04,15,06,46,6.80
2016,04,15,06,47,6.80
2016,04,15,06,48,6.80
2016,04,15,06,49,6.80
2016,04,15,06,50,6.80
2016,04,15,06,51,6.90
2016,04,15,06,52,6.90
2016,04,15,06,53,6.90
2016,04,15,06,54,6.90
2016,04,15,06,55,6.90
2016,04,15,06,56,7.00
2016,04,15,06,57,7.00
2016,04,15,06,58,7.00
2016,04,15,06,59,7.00
2016,04,15,07,00,7.10
2016,04,15,07,01,7.10
2016,04,15,07,02,7.10
2016,04,15,07,03,7.10
2016,04,15,07,04,7.10
2016,04,15,07,05,7.10
2016,04,15,07,06,7.10
2016,04,15,07,07,7.10
2016,04,15,07,08,7.10
2016,04,15,07,09,7.10
2016,04,15,07,10,7.20
2016,04,15,07,11,7.20
2016,04,15,07,12,7.20
2016,04,15,07,13,7.20
2016,04,15,07,14,7.20
2016,04,15,07,15,7.20
2016,04,15,07,16,7.20
2016,04,15,07,17,7.30
2016,04,15,07,18,7.30
2016,04,15,07,19,7.30
2016,04,15,07,20,7.40
2016,04,15,07,21,7.40
2016,04,15,07,22,7.40
2016,04,15,07,23,7.40
2016,04,15,07,24,7.50
2016,04,15,07,25,7.50
2016,04,15,07,26,7.50
2016,04,15,07,27,7.60
2016,04,15,07,28,7.60
2016,04,15,07,29,7.70
2016,04,15,07,30,7.70
2016,04,15,07,31,7.70
2016,04,15,07,32,7.80
2016,04,15,07,33,7.80
2016,04,15,07,34,7.80
2016,04,15,07,35,7.80
2016,04,15,07,36,7.80
2016,04,15,07,37,7.80
2016,04,15,07,38,7.80
2016,04,15,07,39,7.80
2016,04,15,07,40,7.80
2016,04,15,07,41,7.80
2016,04,15,07,42,7.80
2016,04,15,07,43,7.80
2016,04,15,07,44,7.80
2016,04,15,07,45,7.80
2016,04,15,07,46,7.80
2016,04,15,07,47,7.80
2016,04,15,07,48,7.80
2016,04,15,07,49,7.80
2016,04,15,07,50,7.80
2016,04,15,07,51,7.90
2016,04,15,07,52,7.90
2016,04,15,07,53,7.90
2016,04,15,07,54,7.90
2016,04,15,07,55,7.90
2016,04,15,07,56,7.90
2016,04,15,07,57,7.90
2016,04,15,07,58,8.00
2016,04,15,07,59,8.00
2016,04,15,08,00,8.00
2016,04,15,08,01,8.00
2016,04,15,08,02,8.10
2016,04,15,08,03,8.10
2016,04,15,08,04,8.10
2016,04,15,08,05,8.10
2016,04,15,08,06,8.10
2016,04,15,08,07,8.10
2016,04,15,08,08,8.10
2016,04,15,08,09,8.10
2016,04,15,08,10,8.20
2016,04,15,08,11,8.20
2016,04,15,08,12,8.20
2016,04,15,08,13,8.20
2016,04,15,08,14,8.20
2016,04,15,08,15,8.20
2016,04,15,08,16,8.20
2016,04,15,08,17,8.20
2016,04,15,08,18,8.20
2016,04,15,08,19,8.30
2016,04,15,08,20,8.30
2016,04,15,08,21,8.30
2016,04,15,08,22,8.30
2016,04,15,08,23,8.30
2016,04,15,08,24,8.40
2016,04,15,08,25,8.40
2016,04,15,08,26,8.40
2016,04,15,08,27,8.40
2016,04,15,08,28,8.50
2016,04,15,08,29,8.50
2016,04,15,08,30,8.60
2016,04,15,08,31,8.60
2016,04,15,08,32,8.60
2016,04,15,08,33,8.60
2016,04,15,08,34,8.60
2016,04,15,08,35,8.70
2016,04,15,08,36,8.70
2016,04,15,08,37,8.70
2016,04,15,08,38,8.70
2016,04,15,08,39,8.80
2016,04,15,08,40,8.80
2016,04,15,08,41,8.80
2016,04,15,08,42,8.80
2016,04,15,08,43,8.80
2016,04,15,08,44,8.90
2016,04,15,08,45,8.90
2016,04,15,08,46,8.90
2016,04,15,08,47,9.00
2016,04,15,08,48,9.00
2016,04,15,08,49,9.10
2016,04,15,08,50,9.10
2016,04,15,08,51,9.20
2016,04,15,08,52,9.20
2016,04,15,08,53,9.20
2016,04,15,08,54,9.20
2016,04,15,08,55,9.30
2016,04,15,08,56,9.30
2016,04,15,08,57,9.30
2016,04,15,08,58,9.30
2016,04,15,08,59,9.30
2016,04,15,09,00,9.30
2016,04,15,09,01,9.30
2016,04,15,09,02,9.30
2016,04,15,09,03,9.30
2016,04,15,09,04,9.30
2016,04,15,09,05,9.30
2016,04,15,09,06,9.30
2016,04,15,09,07,9.30
2016,04,15,09,08,9.40
2016,04,15,09,09,9.40
2016,04,15,09,10,9.40
2016,04,15,09,11,9.50
2016,04,15,09,12,9.50
2016,04,15,09,13,9.60
2016,04,15,09,14,9.60
2016,04,15,09,15,9.60
2016,04,15,09,16,9.70
2016,04,15,09,17,9.70
2016,04,15,09,18,9.70
2016,04,15,09,19,9.70
2016,04,15,09,20,9.70
2016,04,15,09,21,9.70
2016,04,15,09,22,9.70
2016,04,15,09,23,9.70
2016,04,15,09,24,9.70
2016,04,15,09,25,9.70
2016,04,15,09,26,9.70
2016,04,15,09,27,9.60
2016,04,15,09,28,9.60
2016,04,15,09,29,9.60
2016,04,15,09,30,9.60
2016,04,15,09,31,9.70
2016,04,15,09,32,9.70
2016,04,15,09,33,9.70
2016,04,15,09,34,9.70
2016,04,15,09,35,9.70
2016,04,15,09,36,9.70
2016,04,15,09,37,9.70
2016,04,15,09,38,9.70
2016,04,15,09,39,9.70
2016,04,15,09,40,9.70
2016,04,15,09,41,9.70
2016,04,15,09,42,9.70
2016,04,15,09,43,9.70
2016,04,15,09,44,9.70
2016,04,15,09,45,9.70
2016,04,15,09,46,9.70
2016,04,15,09,47,9.70
2016,04,15,09,48,9.70
2016,04,15,09,49,9.70
2016,04,15,09,50,9.70
2016,04,15,09,51,9.70
2016,04,15,09,52,9.80
2016,04,15,09,53,9.80
2016,04,15,09,54,9.80
2016,04,15,09,55,9.80
2016,04,15,09,56,9.90
2016,04,15,09,57,9.90
2016,04,15,09,58,10.00
2016,04,15,09,59,10.10
2016,04,15,10,00,10.30
2016,04,15,10,01,10.40
2016,04,15,10,02,10.50
2016,04,15,10,03,10.60
2016,04,15,10,04,10.50
2016,04,15,10,05,10.50
2016,04,15,10,06,10.50
2016,04,15,10,07,10.60
2016,04,15,10,08,10.60
2016,04,15,10,09,10.50
2016,04,15,10,10,10.60
2016,04,15,10,11,10.50
2016,04,15,10,12,10.50
2016,04,15,10,13,10.60
2016,04,15,10,14,10.60
2016,04,15,10,15,10.70
2016,04,15,10,16,10.70
2016,04,15,10,17,10.80
2016,04,15,10,18,10.80
2016,04,15,10,19,10.70
2016,04,15,10,20,10.70
2016,04,15,10,21,10.70
2016,04,15,10,22,10.70
2016,04,15,10,23,10.80
2016,04,15,10,24,10.80
2016,04,15,10,25,10.90
2016,04,15,10,26,10.90
2016,04,15,10,27,10.90
2016,04,15,10,28,10.90
2016,04,15,10,29,10.90
2016,04,15,10,30,11.00
2016,04,15,10,31,10.90
2016,04,15,10,32,11.00
2016,04,15,10,33,11.00
2016,04,15,10,34,11.00
2016,04,15,10,35,10.90
2016,04,15,10,36,11.00
2016,04,15,10,37,11.00
2016,04,15,10,38,11.00
2016,04,15,10,39,11.10
2016,04,15,10,40,11.20
2016,04,15,10,41,11.20
2016,04,15,10,42,11.30
2016,04,15,10,43,11.30
2016,04,15,10,44,11.30
2016,04,15,10,45,11.20
2016,04,15,10,46,11.20
2016,04,15,10,47,11.20
2016,04,15,10,48,11.20
2016,04,15,10,49,11.20
2016,04,15,10,50,11.20
2016,04,15,10,51,11.20
2016,04,15,10,52,11.20
2016,04,15,10,53,11.20
2016,04,15,10,54,11.30
2016,04,15,10,55,11.30
2016,04,15,10,56,11.30
2016,04,15,10,57,11.40
2016,04,15,10,58,11.40
2016,04,15,10,59,11.40
2016,04,15,11,00,11.50
2016,04,15,11,01,11.50
2016,04,15,11,02,11.50
2016,04,15,11,03,11.50
2016,04,15,11,04,11.60
2016,04,15,11,05,11.60
2016,04,15,11,06,11.70
2016,04,15,11,07,11.70
2016,04,15,11,08,11.60
2016,04,15,11,09,11.60
2016,04,15,11,10,11.60
2016,04,15,11,11,11.60
2016,04,15,11,12,11.60
2016,04,15,11,13,11.60
2016,04,15,11,14,11.70
2016,04,15,11,15,11.80
2016,04,15,11,16,11.80
2016,04,15,11,17,11.80
2016,04,15,11,18,11.90
2016,04,15,11,19,11.90
2016,04,15,11,20,12.00
2016,04,15,11,21,12.00
2016,04,15,11,22,12.10
2016,04,15,11,23,12.10
2016,04,15,11,24,12.10
2016,04,15,11,25,12.10
2016,04,15,11,26,12.10
2016,04,15,11,27,12.10
2016,04,15,11,28,12.10
2016,04,15,11,29,12.20
2016,04,15,11,30,12.20
2016,04,15,11,31,12.30
2016,04,15,11,32,12.30
2016,04,15,11,33,12.40
2016,04,15,11,34,12.50
2016,04,15,11,35,12.50
2016,04,15,11,36,12.60
2016,04,15,11,37,12.70
2016,04,15,11,38,12.90
2016,04,15,11,39,13.00
2016,04,15,11,40,13.20
2016,04,15,11,41,13.20
2016,04,15,11,42,13.30
2016,04,15,11,43,13.40
2016,04,15,11,44,13.50
2016,04,15,11,45,13.50
2016,04,15,11,46,13.60
2016,04,15,11,47,13.60
2016,04,15,11,48,13.60
2016,04,15,11,49,13.50
2016,04,15,11,50,13.50
2016,04,15,11,51,13.50
2016,04,15,11,52,13.50
2016,04,15,11,53,13.60
2016,04,15,11,54,13.70
2016,04,15,11,55,13.70
2016,04,15,11,56,13.60
2016,04,15,11,57,13.50
2016,04,15,11,58,13.30
2016,04,15,11,59,13.20
2016,04,15,12,00,13.20
2016,04,15,12,01,13.20
2016,04,15,12,02,13.10
2016,04,15,12,03,13.10
2016,04,15,12,04,13.00
2016,04,15,12,05,13.00
2016,04,15,12,06,12.80
2016,04,15,12,07,12.70
2016,04,15,12,08,12.70
2016,04,15,12,09,12.70
2016,04,15,12,10,12.70
2016,04,15,12,11,12.80
2016,04,15,12,12,12.90
2016,04,15,12,13,13.10
2016,04,15,12,14,13.30
2016,04,15,12,15,13.40
2016,04,15,12,16,13.50
2016,04,15,12,17,13.60
2016,04,15,12,18,13.70
2016,04,15,12,19,13.90
2016,04,15,12,20,14.00
2016,04,15,12,21,14.10
2016,04,15,12,22,14.20
2016,04,15,12,23,14.20
2016,04,15,12,24,14.30
2016,04,15,12,25,14.20
2016,04,15,12,26,14.20
2016,04,15,12,27,14.20
2016,04,15,12,28,14.10
2016,04,15,12,29,14.20
2016,04,15,12,30,14.20
2016,04,15,12,31,14.20
2016,04,15,12,32,14.30
2016,04,15,12,33,14.20
2016,04,15,12,34,14.20
2016,04,15,12,35,14.30
2016,04,15,12,36,14.20
2016,04,15,12,37,14.30
2016,04,15,12,38,14.30
2016,04,15,12,39,14.30
2016,04,15,12,40,14.30
2016,04,15,12,41,14.40
2016,04,15,12,42,14.40
2016,04,15,12,43,14.40
2016,04,15,12,44,14.20
2016,04,15,12,45,14.10
2016,04,15,12,46,14.00
2016,04,15,12,47,13.90
2016,04,15,12,48,13.80
2016,04,15,12,49,13.90
2016,04,15,12,50,13.90
2016,04,15,12,51,13.90
2016,04,15,12,52,13.90
2016,04,15,12,53,14.00
2016,04,15,12,54,14.10
2016,04,15,12,55,14.10
2016,04,15,12,56,14.20
2016,04,15,12,57,14.30
2016,04,15,12,58,14.30
2016,04,15,12,59,14.30
2016,04,15,13,00,14.30
2016,04,15,13,01,14.30
2016,04,15,13,02,14.30
2016,04,15,13,03,14.30
2016,04,15,13,04,14.20
2016,04,15,13,05,14.10
2016,04,15,13,06,14.00
2016,04,15,13,07,13.80
2016,04,15,13,08,13.70
2016,04,15,13,09,13.60
2016,04,15,13,10,13.50
2016,04,15,13,11,13.40
2016,04,15,13,12,13.50
2016,04,15,13,13,13.60
2016,04,15,13,14,13.60
2016,04,15,13,15,13.60
2016,04,15,13,16,13.60
2016,04,15,13,17,13.60
2016,04,15,13,18,13.60
2016,04,15,13,19,13.60
2016,04,15,13,20,13.70
2016,04,15,13,21,13.70
2016,04,15,13,22,13.70
2016,04,15,13,23,13.70
2016,04,15,13,24,13.70
2016,04,15,13,25,13.70
2016,04,15,13,26,13.70
2016,04,15,13,27,13.80
2016,04,15,13,28,13.90
2016,04,15,13,29,13.90
2016,04,15,13,30,13.90
2016,04,15,13,31,13.90
2016,04,15,13,32,13.70
2016,04,15,13,33,13.70
2016,04,15,13,34,13.70
2016,04,15,13,35,13.80
2016,04,15,13,36,13.90
2016,04,15,13,37,14.00
2016,04,15,13,38,14.20
2016,04,15,13,39,14.30
2016,04,15,13,40,14.40
2016,04,15,13,41,14.40
2016,04,15,13,42,14.40
2016,04,15,13,43,14.40
2016,04,15,13,44,14.40
2016,04,15,13,45,14.40
2016,04,15,13,46,14.30
2016,04,15,13,47,14.20
2016,04,15,13,48,14.00
2016,04,15,13,49,13.90
2016,04,15,13,50,13.80
2016,04,15,13,51,13.80
2016,04,15,13,52,13.90
2016,04,15,13,53,13.90
2016,04,15,13,54,14.00
2016,04,15,13,55,14.00
2016,04,15,13,56,14.00
2016,04,15,13,57,14.10
2016,04,15,13,58,14.10
2016,04,15,13,59,14.10
2016,04,15,14,00,14.20
2016,04,15,14,01,14.30
2016,04,15,14,02,14.30
2016,04,15,14,03,14.40
2016,04,15,14,04,14.40
2016,04,15,14,05,14.40
2016,04,15,14,06,14.50
2016,04,15,14,07,14.50
2016,04,15,14,08,14.60
2016,04,15,14,09,14.60
2016,04,15,14,10,14.60
2016,04,15,14,11,14.50
2016,04,15,14,12,14.40
2016,04,15,14,13,14.40
2016,04,15,14,14,14.30
2016,04,15,14,15,14.20
2016,04,15,14,16,14.20
2016,04,15,14,17,14.20
2016,04,15,14,18,14.20
2016,04,15,14,19,14.20
2016,04,15,14,20,14.20
2016,04,15,14,21,14.20
2016,04,15,14,22,14.20
2016,04,15,14,23,14.20
2016,04,15,14,24,14.20
2016,04,15,14,25,14.20
2016,04,15,14,26,14.20
2016,04,15,14,27,14.20
2016,04,15,14,28,14.20
2016,04,15,14,29,14.30
2016,04,15,14,30,14.40
2016,04,15,14,31,14.50
2016,04,15,14,32,14.60
2016,04,15,14,33,14.60
2016,04,15,14,34,14.70
2016,04,15,14,35,14.80
2016,04,15,14,36,14.90
2016,04,15,14,37,15.00
2016,04,15,14,38,15.10
2016,04,15,14,39,15.10
2016,04,15,14,40,15.10
2016,04,15,14,41,15.10
2016,04,15,14,42,15.10
2016,04,15,14,43,15.10
2016,04,15,14,44,15.10
2016,04,15,14,45,15.00
2016,04,15,14,46,15.00
2016,04,15,14,47,15.00
2016,04,15,14,48,15.00
2016,04,15,14,49,15.00
2016,04,15,14,50,15.10
2016,04,15,14,51,15.10
2016,04,15,14,52,15.10
2016,04,15,14,53,15.10
2016,04,15,14,54,15.10
2016,04,15,14,55,15.10
2016,04,15,14,56,15.10
2016,04,15,14,57,15.00
2016,04,15,14,58,14.90
2016,04,15,14,59,14.80
2016,04,15,15,00,14.80
2016,04,15,15,01,14.70
2016,04,15,15,02,14.60
2016,04,15,15,03,14.60
2016,04,15,15,04,14.60
2016,04,15,15,05,14.50
2016,04,15,15,06,14.40
2016,04,15,15,07,14.40
2016,04,15,15,08,14.40
2016,04,15,15,09,14.40
2016,04,15,15,10,14.40
2016,04,15,15,11,14.40
2016,04,15,15,12,14.50
2016,04,15,15,13,14.50
2016,04,15,15,14,14.50
2016,04,15,15,15,14.50
2016,04,15,15,16,14.60
2016,04,15,15,17,14.60
2016,04,15,15,18,14.60
2016,04,15,15,19,14.60
2016,04,15,15,20,14.60
2016,04,15,15,21,14.70
2016,04,15,15,22,14.70
2016,04,15,15,23,14.80
2016,04,15,15,24,14.90
2016,04,15,15,25,15.00
2016,04,15,15,26,15.10
2016,04,15,15,27,15.10
2016,04,15,15,28,15.10
2016,04,15,15,29,15.20
2016,04,15,15,30,15.20
2016,04,15,15,31,15.10
2016,04,15,15,32,15.10
2016,04,15,15,33,15.00
2016,04,15,15,34,15.00
2016,04,15,15,35,14.90
2016,04,15,15,36,14.90
2016,04,15,15,37,14.90
2016,04,15,15,38,14.90
2016,04,15,15,39,14.90
2016,04,15,15,40,14.90
2016,04,15,15,41,14.90
2016,04,15,15,42,14.90
2016,04,15,15,43,14.90
2016,04,15,15,44,14.90
2016,04,15,15,45,14.90
2016,04,15,15,46,14.80
2016,04,15,15,47,14.80
2016,04,15,15,48,14.80
2016,04,15,15,49,14.80
2016,04,15,15,50,14.80
2016,04,15,15,51,14.80
2016,04,15,15,52,14.80
2016,04,15,15,53,14.80
2016,04,15,15,54,14.80
2016,04,15,15,55,14.80
2016,04,15,15,56,14.80
2016,04,15,15,57,14.70
2016,04,15,15,58,14.60
2016,04,15,15,59,14.50
2016,04,15,16,00,14.50
2016,04,15,16,01,14.40
2016,04,15,16,02,14.40
2016,04,15,16,03,14.40
2016,04,15,16,04,14.50
2016,04,15,16,05,14.60
2016,04,15,16,06,14.60
2016,04,15,16,07,14.60
2016,04,15,16,08,14.60
2016,04,15,16,09,14.70
2016,04,15,16,10,14.70
2016,04,15,16,11,14.80
2016,04,15,16,12,14.80
2016,04,15,16,13,14.90
2016,04,15,16,14,14.90
2016,04,15,16,15,14.90
2016,04,15,16,16,15.00
2016,04,15,16,17,15.20
2016,04,15,16,18,15.30
2016,04,15,16,19,15.40
2016,04,15,16,20,15.40
2016,04,15,16,21,15.40
2016,04,15,16,22,15.50
2016,04,15,16,23,15.50
2016,04,15,16,24,15.50
2016,04,15,16,25,15.60
2016,04,15,16,26,15.50
2016,04,15,16,27,15.40
2016,04,15,16,28,15.40
2016,04,15,16,29,15.40
2016,04,15,16,30,15.40
2016,04,15,16,31,15.40
2016,04,15,16,32,15.40
2016,04,15,16,33,15.40
2016,04,15,16,34,15.30
2016,04,15,16,35,15.30
2016,04,15,16,36,15.20
2016,04,15,16,37,15.10
2016,04,15,16,38,15.10
2016,04,15,16,39,15.10
2016,04,15,16,40,15.10
2016,04,15,16,41,15.20
2016,04,15,16,42,15.20
2016,04,15,16,43,15.30
2016,04,15,16,44,15.30
2016,04,15,16,45,15.30
2016,04,15,16,46,15.30
2016,04,15,16,47,15.30
2016,04,15,16,48,15.30
2016,04,15,16,49,15.30
2016,04,15,16,50,15.30
2016,04,15,16,51,15.20
2016,04,15,16,52,15.20
2016,04,15,16,53,15.10
2016,04,15,16,54,15.00
2016,04,15,16,55,14.90
2016,04,15,16,56,14.90
2016,04,15,16,57,14.80
2016,04,15,16,58,14.80
2016,04,15,16,59,14.90
2016,04,15,17,00,14.90
2016,04,15,17,01,14.90
2016,04,15,17,02,14.90
2016,04,15,17,03,15.00
2016,04,15,17,04,15.00
2016,04,15,17,05,15.00
2016,04,15,17,06,15.00
2016,04,15,17,07,15.00
2016,04,15,17,08,15.00
2016,04,15,17,09,15.10
2016,04,15,17,10,15.10
2016,04,15,17,11,15.10
2016,04,15,17,12,15.10
2016,04,15,17,13,15.20
2016,04,15,17,14,15.20
2016,04,15,17,15,15.20
2016,04,15,17,16,15.20
2016,04,15,17,17,15.20
2016,04,15,17,18,15.20
2016,04,15,17,19,15.20
2016,04,15,17,20,15.20
2016,04,15,17,21,15.10
2016,04,15,17,22,15.10
2016,04,15,17,23,15.00
2016,04,15,17,24,14.90
2016,04,15,17,25,14.90
2016,04,15,17,26,14.90
2016,04,15,17,27,14.90
2016,04,15,17,28,14.90
2016,04,15,17,29,14.90
2016,04,15,17,30,14.90
2016,04,15,17,31,14.80
2016,04,15,17,32,14.80
2016,04,15,17,33,14.80
2016,04,15,17,34,14.80
2016,04,15,17,35,14.80
2016,04,15,17,36,14.80
2016,04,15,17,37,14.80
2016,04,15,17,38,14.90
2016,04,15,17,39,14.90
2016,04,15,17,40,14.90
2016,04,15,17,41,14.90
2016,04,15,17,42,14.90
2016,04,15,17,43,14.90
2016,04,15,17,44,14.80
2016,04,15,17,45,14.80
2016,04,15,17,46,14.70
2016,04,15,17,47,14.70